TimePDT,TemperatureF,Dew PointF,Humidity,Sea Level PressureIn,VisibilityMPH,Wind Direction,Wind SpeedMPH,Gust SpeedMPH,PrecipitationIn,Events,Conditions,WindDirDegrees,DateUTC
12:52 AM,51.1,46.0,83,29.99,-9999.0,Calm,Calm,-,N/A,,Unknown,0,2011-10-25 07:52:00
1:52 AM,50.0,46.9,89,29.98,-9999.0,Calm,Calm,-,N/A,,Unknown,0,2011-10-25 08:52:00
2:52 AM,48.9,48.0,97,29.98,-9999.0,ENE,4.6,-,N/A,,Unknown,70,2011-10-25 09:52:00
3:52 AM,50.0,48.9,96,29.98,-9999.0,ENE,4.6,-,N/A,,Unknown,70,2011-10-25 10:52:00
4:52 AM,50.0,48.9,96,29.97,-9999.0,North,4.6,-,N/A,,Unknown,10,2011-10-25 11:52:00
5:52 AM,51.1,50.0,96,29.99,-9999.0,Calm,Calm,-,N/A,,Unknown,0,2011-10-25 12:52:00
6:52 AM,51.1,50.0,96,29.99,-9999.0,Calm,Calm,-,N/A,,Unknown,0,2011-10-25 13:52:00
7:52 AM,53.1,50.0,89,30.00,-9999.0,West,8.1,-,N/A,,Unknown,260,2011-10-25 14:52:00
8:52 AM,53.1,50.0,89,30.01,-9999.0,SW,10.4,-,N/A,,Unknown,220,2011-10-25 15:52:00
9:52 AM,55.9,48.0,75,30.02,-9999.0,SW,11.5,-,N/A,,Unknown,220,2011-10-25 16:52:00
10:52 AM,59.0,46.9,64,30.02,-9999.0,WSW,12.7,-,N/A,,Unknown,250,2011-10-25 17:52:00
11:52 AM,59.0,46.0,62,30.01,-9999.0,West,13.8,20.7,N/A,,Unknown,260,2011-10-25 18:52:00
12:52 PM,61.0,44.1,54,29.98,-9999.0,West,13.8,23.0,N/A,,Unknown,260,2011-10-25 19:52:00
1:52 PM,60.1,44.1,55,29.96,-9999.0,WNW,20.7,25.3,N/A,,Unknown,290,2011-10-25 20:52:00
2:52 PM,59.0,44.1,58,29.95,-9999.0,West,12.7,19.6,N/A,,Unknown,270,2011-10-25 21:52:00
3:52 PM,57.9,44.1,60,29.94,-9999.0,West,15.0,21.9,N/A,,Unknown,270,2011-10-25 22:52:00
4:00 PM,-9999,-9999,N/A,-9999,-9999.0,North,-9999.0,-,N/A,,Unknown,0,2011-10-25 23:00:00
4:52 PM,57.0,45.0,64,29.94,-9999.0,West,9.2,-,N/A,,Unknown,280,2011-10-25 23:52:00
5:52 PM,55.9,45.0,67,29.93,-9999.0,West,10.4,-,N/A,,Unknown,280,2011-10-26 00:52:00
6:52 PM,55.0,45.0,69,29.94,-9999.0,West,9.2,-,N/A,,Unknown,270,2011-10-26 01:52:00
7:52 PM,54.0,45.0,72,29.94,-9999.0,West,11.5,-,N/A,,Unknown,270,2011-10-26 02:52:00
8:52 PM,53.1,45.0,74,29.95,-9999.0,West,8.1,-,N/A,,Unknown,260,2011-10-26 03:52:00
9:52 PM,53.1,44.1,71,29.95,-9999.0,WSW,11.5,-,N/A,,Unknown,250,2011-10-26 04:52:00
10:52 PM,52.0,45.0,77,29.96,-9999.0,West,8.1,-,N/A,,Unknown,260,2011-10-26 05:52:00
11:52 PM,52.0,45.0,77,29.95,-9999.0,West,6.9,-,N/A,,Unknown,270,2011-10-26 06:52:00